Currently 72°F in Simi Valley, California, USA
72°F
91°F / 65°F
calm
0.00"
Tuesday, August 16, 2022 11:49 PM PDT

Simi Valley, California Climate Summary
Typical November Day

Normal High:    73.4°F (23.0°C)
Normal Low:    51.5°F (10.8°C)
Average:    61.5°F (16.4°C)

Hour    Temperature    Wind Speed    Humidity
12:00 AM    57°F (14°C)    4 mph    56%
1:00 AM    56°F (14°C)    4 mph    56%
2:00 AM    56°F (13°C)    4 mph    56%
3:00 AM    56°F (13°C)    4 mph    57%
4:00 AM    55°F (13°C)    4 mph    57%
5:00 AM    55°F (13°C)    4 mph    57%
6:00 AM    55°F (13°C)    4 mph    58%
7:00 AM    54°F (12°C)    4 mph    59%
8:00 AM    57°F (14°C)    4 mph    57%
9:00 AM    62°F (17°C)    5 mph    52%
10:00 AM    66°F (19°C)    5 mph    46%
11:00 AM    69°F (21°C)    6 mph    41%
12:00 PM    71°F (22°C)    6 mph    38%
1:00 PM    72°F (22°C)    6 mph    37%
2:00 PM    72°F (22°C)    7 mph    38%
3:00 PM    71°F (22°C)    7 mph    40%
4:00 PM    69°F (21°C)    6 mph    43%
5:00 PM    66°F (19°C)    4 mph    48%
6:00 PM    63°F (17°C)    3 mph    51%
7:00 PM    61°F (16°C)    3 mph    53%
8:00 PM    59°F (15°C)    4 mph    54%
9:00 PM    58°F (15°C)    4 mph    55%
10:00 PM    58°F (14°C)    4 mph    55%
11:00 PM    57°F (14°C)    4 mph    56%
 

The Simi Valley, California weather pages are a service of WeatherCurrents.
Copyright ©2022  WeatherCurrents. All rights reserved. - Submit questions and comments - Privacy Policy